Location: Be?chatów
(51.3665°N, 19.3745°E)
Time: 17:04:33
(UTC+00:00)

Cosmos 1470 Rocket - Pass Details

Date: 19 May 2025
Orbit: 597 x 628 km, 82.5° (Epoch: 20 June)

Event Time Altitude Azimuth Distance (km) Brightness Sun altitude
Rises 22:44:45 0° 353° (N) 2,869 8.6 -18.6°
Reaches altitude 10° 22:47:04 10° 0° (N) 1,957 7.4 -18.6°
Maximum altitude 22:51:14 45° 74° (ENE) 828 4.3 -18.6°
Enters shadow 22:53:11 27° 131° (SE) 1,173 4.6 -18.6°
